| time (UTC) | temp C | wind direction | speed KPH | gust KPH | rain 1hr cm | rain 24hr cm | rain mn cm | humidity % | barometer mb |
| 20260903200552 | 26 | 128 | 22.5 | 35.4 | 0.00 | 0.00 | 0.00 | 21 | 1003.5 |
| 20260903200051 | 26 | 161 | 20.9 | 37.0 | 0.00 | 0.00 | 0.00 | 21 | 1003.5 |
| 20260903195548 | 26 | 151 | 22.5 | 43.5 | 0.00 | 0.00 | 0.00 | 20 | 1003.6 |
| 20260903195047 | 26 | 136 | 22.5 | 38.6 | 0.00 | 0.00 | 0.00 | 21 | 1003.6 |
| 20260903194546 | 26 | 138 | 25.7 | 38.6 | 0.00 | 0.00 | 0.00 | 21 | 1003.6 |
| 20260903194046 | 26 | 126 | 19.3 | 37.0 | 0.00 | 0.00 | 0.00 | 20 | 1003.8 |
| 20260903193542 | 25 | 154 | 25.7 | 37.0 | 0.00 | 0.00 | 0.00 | 22 | 1003.8 |
| 20260903193041 | 26 | 176 | 22.5 | 35.4 | 0.00 | 0.00 | 0.00 | 22 | 1003.8 |
| 20260903192540 | 26 | 155 | 19.3 | 33.8 | 0.00 | 0.00 | 0.00 | 20 | 1004.0 |
| 20260903192038 | 25 | 153 | 16.1 | 33.8 | 0.00 | 0.00 | 0.00 | 21 | 1003.9 |
| 20260903191539 | 25 | 140 | 12.9 | 35.4 | 0.00 | 0.00 | 0.00 | 21 | 1004.0 |
| 20260903191035 | 26 | 198 | 19.3 | 35.4 | 0.00 | 0.00 | 0.00 | 20 | 1004.1 |
| 20260903190536 | 25 | 151 | 22.5 | 37.0 | 0.00 | 0.00 | 0.00 | 21 | 1004.3 |
| 20260903190032 | 25 | 157 | 19.3 | 32.2 | 0.00 | 0.00 | 0.00 | 21 | 1004.3 |
| 20260903185530 | 25 | 200 | 19.3 | 30.6 | 0.00 | 0.00 | 0.00 | 20 | 1004.3 |
| 20260903185031 | 25 | 146 | 19.3 | 30.6 | 0.00 | 0.00 | 0.00 | 21 | 1004.4 |
| 20260903184527 | 25 | 166 | 24.1 | 29.0 | 0.00 | 0.00 | 0.00 | 20 | 1004.4 |
| 20260903184026 | 25 | 165 | 20.9 | 30.6 | 0.00 | 0.00 | 0.00 | 21 | 1004.5 |
| 20260903183525 | 25 | 150 | 22.5 | 32.2 | 0.00 | 0.00 | 0.00 | 21 | 1004.6 |
| 20260903183023 | 25 | 178 | 17.7 | 30.6 | 0.00 | 0.00 | 0.00 | 20 | 1004.5 |
| 20260903182521 | 25 | 127 | 17.7 | 33.8 | 0.00 | 0.00 | 0.00 | 22 | 1004.6 |
| 20260903182020 | 25 | 159 | 22.5 | 33.8 | 0.00 | 0.00 | 0.00 | 20 | 1004.8 |
| 20260903181518 | 25 | 226 | 22.5 | 37.0 | 0.00 | 0.00 | 0.00 | 21 | 1004.8 |
| 20260903181016 | 25 | 144 | 24.1 | 37.0 | 0.00 | 0.00 | 0.00 | 21 | 1004.9 |
| 20260903180518 | 25 | 140 | 27.4 | 37.0 | 0.00 | 0.00 | 0.00 | 21 | 1004.9 |
| 20260903180030 | 25 | 153 | 17.7 | 27.4 | 0.00 | 0.00 | 0.00 | 21 | 1004.9 |
| 20260903175512 | 25 | 172 | 16.1 | 37.0 | 0.00 | 0.00 | 0.00 | 21 | 1005.0 |
| 20260903175011 | 25 | 147 | 11.3 | 25.7 | 0.00 | 0.00 | 0.00 | 20 | 1004.9 |
| 20260903174509 | 25 | 203 | 17.7 | 27.4 | 0.00 | 0.00 | 0.00 | 20 | 1005.0 |
| 20260903174007 | 24 | 200 | 14.5 | 24.1 | 0.00 | 0.00 | 0.00 | 20 | 1005.1 |
| 20260903173506 | 24 | 221 | 9.7 | 27.4 | 0.00 | 0.00 | 0.00 | 20 | 1005.1 |
| 20260903173004 | 24 | 211 | 16.1 | 27.4 | 0.00 | 0.00 | 0.00 | 22 | 1005.0 |
| 20260903172503 | 24 | 253 | 16.1 | 25.7 | 0.00 | 0.00 | 0.00 | 21 | 1005.1 |
| 20260903172002 | 24 | 207 | 11.3 | 22.5 | 0.00 | 0.00 | 0.00 | 20 | 1005.2 |
| 20260903171600 | 23 | 192 | 9.7 | 19.3 | 0.00 | 0.00 | 0.00 | 20 | 1005.2 |
| 20260903171059 | 23 | 226 | 6.4 | 17.7 | 0.00 | 0.00 | 0.00 | 21 | 1005.2 |
| 20260903170602 | 23 | 227 | 8.0 | 17.7 | 0.00 | 0.00 | 0.00 | 22 | 1005.2 |
| 20260903170058 | 23 | 178 | 6.4 | 19.3 | 0.00 | 0.00 | 0.00 | 21 | 1005.3 |
| 20260903165558 | 23 | 202 | 8.0 | 20.9 | 0.00 | 0.00 | 0.00 | 22 | 1005.2 |
| 20260903165053 | 23 | 152 | 8.0 | 20.9 | 0.00 | 0.00 | 0.00 | 23 | 1005.2 |
| 20260903164601 | 23 | 136 | 9.7 | 22.5 | 0.00 | 0.00 | 0.00 | 22 | 1005.3 |
| 20260903164050 | 22 | 158 | 9.7 | 19.3 | 0.00 | 0.00 | 0.00 | 22 | 1005.3 |
| 20260903163549 | 22 | 122 | 6.4 | 16.1 | 0.00 | 0.00 | 0.00 | 25 | 1005.3 |
| 20260903163048 | 22 | 117 | 9.7 | 16.1 | 0.00 | 0.00 | 0.00 | 23 | 1005.3 |
| 20260903162545 | 22 | 125 | 11.3 | 16.1 | 0.00 | 0.00 | 0.00 | 27 | 1005.3 |
| 20260903162044 | 22 | 161 | 6.4 | 16.1 | 0.00 | 0.00 | 0.00 | 26 | 1005.4 |
| 20260903161543 | 21 | 153 | 8.0 | 14.5 | 0.00 | 0.00 | 0.00 | 23 | 1005.5 |
| 20260903161041 | 21 | 163 | 8.0 | 16.1 | 0.00 | 0.00 | 0.00 | 25 | 1005.5 |
| 20260903160540 | 21 | 124 | 9.7 | 16.1 | 0.00 | 0.00 | 0.00 | 27 | 1005.6 |
| 20260903160039 | 21 | 143 | 8.0 | 14.5 | 0.00 | 0.00 | 0.00 | 28 | 1005.6 |
| 20260903155540 | 20 | 178 | 11.3 | 16.1 | 0.00 | 0.00 | 0.00 | 27 | 1005.5 |
| 20260903155035 | 20 | 147 | 12.9 | 16.1 | 0.00 | 0.00 | 0.00 | 27 | 1005.6 |
| 20260903154535 | 20 | 157 | 9.7 | 19.3 | 0.00 | 0.00 | 0.00 | 30 | 1005.6 |
| 20260903154032 | 19 | 159 | 14.5 | 19.3 | 0.00 | 0.00 | 0.00 | 31 | 1005.7 |
| 20260903153530 | 18 | 135 | 11.3 | 17.7 | 0.00 | 0.00 | 0.00 | 33 | 1005.7 |
| 20260903153030 | 18 | 165 | 8.0 | 14.5 | 0.00 | 0.00 | 0.00 | 35 | 1005.9 |
| 20260903152530 | 18 | 171 | 9.7 | 14.5 | 0.00 | 0.00 | 0.00 | 34 | 1006.0 |
| 20260903152026 | 17 | 172 | 8.0 | 14.5 | 0.00 | 0.00 | 0.00 | 35 | 1005.9 |
| 20260903151528 | 17 | 158 | 9.7 | 14.5 | 0.00 | 0.00 | 0.00 | 35 | 1006.0 |
| 20260903151025 | 17 | 155 | 8.0 | 12.9 | 0.00 | 0.00 | 0.00 | 34 | 1006.0 |
| 20260903150523 | 17 | 176 | 9.7 | 12.9 | 0.00 | 0.00 | 0.00 | 36 | 1006.0 |
| 20260903150022 | 16 | 186 | 8.0 | 12.9 | 0.00 | 0.00 | 0.00 | 38 | 1006.0 |
| 20260903145520 | 15 | 165 | 11.3 | 14.5 | 0.00 | 0.00 | 0.00 | 39 | 1006.1 |
| 20260903145019 | 15 | 147 | 9.7 | 11.3 | 0.00 | 0.00 | 0.00 | 43 | 1006.1 |
| 20260903144517 | 14 | 153 | 8.0 | 14.5 | 0.00 | 0.00 | 0.00 | 44 | 1006.1 |
| 20260903144016 | 13 | 190 | 8.0 | 14.5 | 0.00 | 0.00 | 0.00 | 45 | 1006.1 |
| 20260903143516 | 13 | 143 | 8.0 | 11.3 | 0.00 | 0.00 | 0.00 | 46 | 1006.0 |
| 20260903143014 | 13 | 158 | 8.0 | 12.9 | 0.00 | 0.00 | 0.00 | 47 | 1006.1 |
| 20260903142511 | 12 | 159 | 6.4 | 11.3 | 0.00 | 0.00 | 0.00 | 52 | 1006.1 |
| 20260903142010 | 12 | 170 | 4.8 | 8.0 | 0.00 | 0.00 | 0.00 | 49 | 1006.1 |
| 20260903141508 | 11 | 198 | 4.8 | 8.0 | 0.00 | 0.00 | 0.00 | 47 | 1006.1 |
| 20260903141010 | 10 | 161 | 4.8 | 8.0 | 0.00 | 0.00 | 0.00 | 50 | 1006.1 |
| 20260903140506 | 10 | 161 | 4.8 | 8.0 | 0.00 | 0.00 | 0.00 | 45 | 1006.1 |
| 20260903140004 | 8 | 147 | 4.8 | 8.0 | 0.00 | 0.00 | 0.00 | 30 | 1006.0 |
| 20260903135502 | 7 | 146 | 4.8 | 9.7 | 0.00 | 0.00 | 0.00 | 19 | 1006.0 |
| 20260903135001 | 6 | 192 | 1.6 | 8.0 | 0.00 | 0.00 | 0.00 | 19 | 1005.9 |
| 20260903134559 | 6 | 176 | 3.2 | 8.0 | 0.00 | 0.00 | 0.00 | 20 | 1005.9 |
| 20260903134059 | 6 | 176 | 1.6 | 4.8 | 0.00 | 0.00 | 0.00 | 17 | 1005.8 |
| 20260903133556 | 6 | 1 | 3.2 | 4.8 | 0.00 | 0.00 | 0.00 | 22 | 1005.8 |
| 20260903133055 | 6 | 12 | 0.0 | 4.8 | 0.00 | 0.00 | 0.00 | 16 | 1005.7 |
| 20260903132553 | 6 | 12 | 0.0 | 4.8 | 0.00 | 0.00 | 0.00 | 15 | 1005.5 |
| 20260903132051 | 6 | 21 | 0.0 | 11.3 | 0.00 | 0.00 | 0.00 | 14 | 1005.5 |
| 20260903131550 | 5 | 77 | 0.0 | 11.3 | 0.00 | 0.00 | 0.00 | 26 | 1005.4 |
| 20260903131051 | 6 | 163 | 1.6 | 3.2 | 0.00 | 0.00 | 0.00 | 28 | 1005.3 |
| 20260903130550 | 5 | 163 | 1.6 | 4.8 | 0.00 | 0.00 | 0.00 | 21 | 1005.1 |
| 20260903130109 | 5 | 163 | 1.6 | 6.4 | 0.00 | 0.00 | 0.00 | 21 | 1005.0 |
| 20260903125544 | 5 | 163 | 1.6 | 6.4 | 0.00 | 0.00 | 0.00 | 23 | 1005.0 |
| 20260903125046 | 5 | 163 | 0.0 | 3.2 | 0.00 | 0.00 | 0.00 | 19 | 1005.0 |
| 20260903124541 | 5 | 163 | 1.6 | 3.2 | 0.00 | 0.00 | 0.00 | 21 | 1004.9 |
| 20260903124039 | 5 | 163 | 0.0 | 6.4 | 0.00 | 0.00 | 0.00 | 24 | 1004.9 |
| 20260903123538 | 5 | 163 | 3.2 | 8.0 | 0.00 | 0.00 | 0.00 | 30 | 1004.9 |
| 20260903123037 | 5 | 163 | 4.8 | 8.0 | 0.00 | 0.00 | 0.00 | 28 | 1004.9 |
| 20260903122538 | 5 | 163 | 4.8 | 8.0 | 0.00 | 0.00 | 0.00 | 28 | 1004.8 |
| 20260903122034 | 5 | 189 | 4.8 | 8.0 | 0.00 | 0.00 | 0.00 | 30 | 1004.8 |
| 20260903121540 | 6 | 189 | 0.0 | 4.8 | 0.00 | 0.00 | 0.00 | 19 | 1004.6 |
| 20260903121030 | 5 | 189 | 0.0 | 4.8 | 0.00 | 0.00 | 0.00 | 21 | 1004.6 |
| 20260903120532 | 5 | 189 | 0.0 | 4.8 | 0.00 | 0.00 | 0.00 | 25 | 1004.5 |
| 20260903120030 | 5 | 189 | 0.0 | 1.6 | 0.00 | 0.00 | 0.00 | 22 | 1004.5 |
| 20260903115526 | 5 | 189 | 0.0 | 3.2 | 0.00 | 0.00 | 0.00 | 18 | 1004.5 |
| 20260903115025 | 5 | 189 | 0.0 | 4.8 | 0.00 | 0.00 | 0.00 | 17 | 1004.4 |
| 20260903114524 | 5 | 189 | 0.0 | 4.8 | 0.00 | 0.00 | 0.00 | 16 | 1004.3 |
| 20260903114021 | 5 | 189 | 0.0 | 3.2 | 0.00 | 0.00 | 0.00 | 15 | 1004.4 |
| 20260903113521 | 5 | 189 | 0.0 | 6.4 | 0.00 | 0.00 | 0.00 | 17 | 1004.3 |
| 20260903113027 | 5 | 189 | 1.6 | 6.4 | 0.00 | 0.00 | 0.00 | 24 | 1004.3 |
| 20260903112517 | 5 | 189 | 1.6 | 6.4 | 0.00 | 0.00 | 0.00 | 27 | 1004.3 |
| 20260903112018 | 6 | 99 | 0.0 | 0.0 | 0.00 | 0.00 | 0.00 | 15 | 1004.2 |
| 20260903111514 | 6 | 99 | 0.0 | 3.2 | 0.00 | 0.00 | 0.00 | 10 | 1004.2 |
| 20260903111013 | 6 | 99 | 0.0 | 6.4 | 0.00 | 0.00 | 0.00 | 7 | 1004.1 |
| 20260903110512 | 6 | 99 | 0.0 | 3.2 | 0.00 | 0.00 | 0.00 | 16 | 1004.0 |
| 20260903110017 | 6 | 99 | 0.0 | 4.8 | 0.00 | 0.00 | 0.00 | 23 | 1003.9 |
| 20260903105508 | 6 | 234 | 1.6 | 4.8 | 0.00 | 0.00 | 0.00 | 26 | 1003.9 |
| 20260903105009 | 6 | 234 | 0.0 | 4.8 | 0.00 | 0.00 | 0.00 | 31 | 1003.8 |
| 20260903104506 | 6 | 234 | 0.0 | 8.0 | 0.00 | 0.00 | 0.00 | 34 | 1003.8 |
| 20260903104004 | 6 | 234 | 4.8 | 8.0 | 0.00 | 0.00 | 0.00 | 32 | 1003.8 |
| 20260903103505 | 7 | 120 | 0.0 | 4.8 | 0.00 | 0.00 | 0.00 | 26 | 1003.7 |
| 20260903103001 | 7 | 120 | 1.6 | 4.8 | 0.00 | 0.00 | 0.00 | 21 | 1003.7 |
| 20260903102559 | 7 | 120 | 0.0 | 6.4 | 0.00 | 0.00 | 0.00 | 18 | 1003.6 |
| 20260903102103 | 7 | 120 | 0.0 | 6.4 | 0.00 | 0.00 | 0.00 | 15 | 1003.6 |
| 20260903101605 | 7 | 219 | 0.0 | 0.0 | 0.00 | 0.00 | 0.00 | 13 | 1003.5 |
| 20260903101057 | 6 | 219 | 0.0 | 1.6 | 0.00 | 0.00 | 0.00 | 12 | 1003.5 |
| 20260903100554 | 6 | 219 | 0.0 | 6.4 | 0.00 | 0.00 | 0.00 | 25 | 1003.4 |
| 20260903100053 | 6 | 219 | 0.0 | 12.9 | 0.00 | 0.00 | 0.00 | 36 | 1003.4 |
| 20260903095551 | 6 | 224 | 6.4 | 12.9 | 0.00 | 0.00 | 0.00 | 38 | 1003.3 |
| 20260903095050 | 6 | 201 | 3.2 | 11.3 | 0.00 | 0.00 | 0.00 | 47 | 1003.2 |
| 20260903094554 | 8 | 201 | 3.2 | 11.3 | 0.00 | 0.00 | 0.00 | 50 | 1003.2 |
| 20260903094047 | 8 | 105 | 3.2 | 9.7 | 0.00 | 0.00 | 0.00 | 46 | 1003.1 |
| 20260903093547 | 8 | 105 | 1.6 | 9.7 | 0.00 | 0.00 | 0.00 | 43 | 1003.1 |
| 20260903093047 | 8 | 202 | 0.0 | 6.4 | 0.00 | 0.00 | 0.00 | 46 | 1003.0 |
| 20260903092546 | 8 | 202 | 0.0 | 8.0 | 0.00 | 0.00 | 0.00 | 41 | 1003.1 |
| 20260903092045 | 8 | 146 | 0.0 | 8.0 | 0.00 | 0.00 | 0.00 | 45 | 1003.0 |
| 20260903091543 | 8 | 146 | 1.6 | 8.0 | 0.00 | 0.00 | 0.00 | 49 | 1002.9 |
| 20260903091046 | 8 | 265 | 0.0 | 4.8 | 0.00 | 0.00 | 0.00 | 48 | 1002.9 |
| 20260903090542 | 8 | 265 | 1.6 | 4.8 | 0.00 | 0.00 | 0.00 | 53 | 1002.8 |
| 20260903090041 | 8 | 265 | 1.6 | 6.4 | 0.00 | 0.00 | 0.00 | 53 | 1002.7 |
| 20260903085540 | 9 | 265 | 0.0 | 6.4 | 0.00 | 0.00 | 0.00 | 53 | 1002.6 |
| 20260903085040 | 10 | 265 | 1.6 | 4.8 | 0.00 | 0.00 | 0.00 | 50 | 1002.7 |
| 20260903084540 | 10 | 265 | 0.0 | 9.7 | 0.00 | 0.00 | 0.00 | 53 | 1002.7 |
| 20260903084040 | 10 | 265 | 0.0 | 9.7 | 0.00 | 0.00 | 0.00 | 54 | 1002.6 |
| 20260903083539 | 11 | 265 | 0.0 | 0.0 | 0.00 | 0.00 | 0.00 | 54 | 1002.7 |
| 20260903083039 | 11 | 265 | 0.0 | 0.0 | 0.00 | 0.00 | 0.00 | 49 | 1002.6 |
| 20260903082537 | 10 | 265 | 0.0 | 4.8 | 0.00 | 0.00 | 0.00 | 53 | 1002.5 |
| 20260903082037 | 9 | 265 | 1.6 | 4.8 | 0.00 | 0.00 | 0.00 | 54 | 1002.6 |
| 20260903081542 | 8 | 265 | 1.6 | 4.8 | 0.00 | 0.00 | 0.00 | 54 | 1002.6 |
| 20260903081036 | 8 | 265 | 1.6 | 4.8 | 0.00 | 0.00 | 0.00 | 54 | 1002.5 |
| 20260903080518 | 8 | 265 | 3.2 | 4.8 | 0.00 | 0.00 | 0.00 | 55 | 1002.5 |
| 20260903080035 | 8 | 265 | 0.0 | 6.4 | 0.00 | 0.00 | 0.00 | 55 | 1002.4 |
| 20260903075535 | 10 | 265 | 3.2 | 6.4 | 0.00 | 0.00 | 0.00 | 54 | 1002.3 |
| 20260903075033 | 11 | 103 | 0.0 | 0.0 | 0.00 | 0.00 | 0.00 | 53 | 1002.3 |
| 20260903074534 | 11 | 103 | 0.0 | 0.0 | 0.00 | 0.00 | 0.00 | 53 | 1002.3 |
| 20260903074035 | 11 | 103 | 0.0 | 0.0 | 0.00 | 0.00 | 0.00 | 54 | 1002.3 |
| 20260903073530 | 11 | 103 | 0.0 | 0.0 | 0.00 | 0.00 | 0.00 | 54 | 1002.2 |
| 20260903073031 | 11 | 103 | 0.0 | 0.0 | 0.00 | 0.00 | 0.00 | 54 | 1002.2 |
| 20260903072529 | 10 | 103 | 0.0 | 6.4 | 0.00 | 0.00 | 0.00 | 54 | 1002.1 |
| 20260903072034 | 10 | 103 | 0.0 | 6.4 | 0.00 | 0.00 | 0.00 | 54 | 1002.0 |
| 20260903071528 | 10 | 239 | 0.0 | 8.0 | 0.00 | 0.00 | 0.00 | 54 | 1001.9 |
| 20260903071026 | 10 | 239 | 0.0 | 11.3 | 0.00 | 0.00 | 0.00 | 54 | 1001.9 |
| 20260903070524 | 12 | 234 | 4.8 | 8.0 | 0.00 | 0.00 | 0.00 | 52 | 1001.7 |
| 20260903070033 | 13 | 234 | 3.2 | 8.0 | 0.00 | 0.00 | 0.00 | 49 | 1001.7 |
| 20260903065523 | 14 | 234 | 3.2 | 8.0 | 0.00 | 0.00 | 0.00 | 47 | 1001.8 |
| 20260903065021 | 13 | 234 | 0.0 | 12.9 | 0.00 | 0.00 | 0.00 | 49 | 1001.7 |
| 20260903064521 | 14 | 228 | 8.0 | 12.9 | 0.00 | 0.00 | 0.00 | 50 | 1001.7 |
| 20260903064019 | 15 | 97 | 0.0 | 4.8 | 0.00 | 0.00 | 0.00 | 51 | 1001.6 |
| 20260903063518 | 15 | 97 | 0.0 | 4.8 | 0.00 | 0.00 | 0.00 | 46 | 1001.7 |
| 20260903063016 | 16 | 97 | 1.6 | 4.8 | 0.00 | 0.00 | 0.00 | 45 | 1001.6 |
| 20260903062516 | 16 | 97 | 1.6 | 4.8 | 0.00 | 0.00 | 0.00 | 42 | 1001.4 |
| 20260903062018 | 16 | 132 | 0.0 | 4.8 | 0.00 | 0.00 | 0.00 | 43 | 1001.4 |
| 20260903061515 | 16 | 132 | 3.2 | 6.4 | 0.00 | 0.00 | 0.00 | 44 | 1001.4 |
| 20260903061012 | 17 | 132 | 3.2 | 6.4 | 0.00 | 0.00 | 0.00 | 45 | 1001.4 |
| 20260903060512 | 17 | 143 | 4.8 | 8.0 | 0.00 | 0.00 | 0.00 | 44 | 1001.4 |
| 20260903060012 | 17 | 61 | 1.6 | 8.0 | 0.00 | 0.00 | 0.00 | 41 | 1001.3 |
| 20260903055510 | 17 | 329 | 3.2 | 12.9 | 0.00 | 0.00 | 0.00 | 41 | 1001.2 |
| 20260903055009 | 17 | 21 | 4.8 | 9.7 | 0.00 | 0.00 | 0.00 | 42 | 1001.2 |
| 20260903054529 | 17 | 62 | 0.0 | 8.0 | 0.00 | 0.00 | 0.00 | 41 | 1001.3 |
| 20260903054010 | 17 | 62 | 3.2 | 8.0 | 0.00 | 0.00 | 0.00 | 45 | 1001.2 |
| 20260903053509 | 17 | 212 | 1.6 | 8.0 | 0.00 | 0.00 | 0.00 | 44 | 1001.2 |
| 20260903053008 | 17 | 212 | 3.2 | 8.0 | 0.00 | 0.00 | 0.00 | 42 | 1001.2 |
| 20260903052508 | 17 | 350 | 3.2 | 6.4 | 0.00 | 0.00 | 0.00 | 43 | 1001.2 |
| 20260903052008 | 17 | 259 | 0.0 | 3.2 | 0.00 | 0.00 | 0.00 | 41 | 1001.2 |
| 20260903051508 | 18 | 330 | 0.0 | 3.2 | 0.00 | 0.00 | 0.00 | 41 | 1001.3 |
| 20260903051011 | 18 | 330 | 0.0 | 6.4 | 0.00 | 0.00 | 0.00 | 41 | 1001.4 |
| 20260903050507 | 18 | 330 | 3.2 | 6.4 | 0.00 | 0.00 | 0.00 | 39 | 1001.4 |
| 20260903050009 | 18 | 5 | 0.0 | 1.6 | 0.00 | 0.00 | 0.00 | 39 | 1001.4 |
| 20260903045510 | 18 | 9 | 0.0 | 3.2 | 0.00 | 0.00 | 0.00 | 39 | 1001.5 |
| 20260903045007 | 18 | 18 | 0.0 | 3.2 | 0.00 | 0.00 | 0.00 | 42 | 1001.4 |
| 20260903044507 | 18 | 14 | 0.0 | 6.4 | 0.00 | 0.00 | 0.00 | 38 | 1001.6 |
| 20260903044007 | 18 | 5 | 3.2 | 6.4 | 0.00 | 0.00 | 0.00 | 38 | 1001.6 |
| 20260903043506 | 18 | 307 | 3.2 | 6.4 | 0.00 | 0.00 | 0.00 | 37 | 1001.6 |
| 20260903043009 | 18 | 310 | 3.2 | 9.7 | 0.00 | 0.00 | 0.00 | 38 | 1001.6 |
| 20260903042506 | 18 | 310 | 4.8 | 9.7 | 0.00 | 0.00 | 0.00 | 39 | 1001.6 |
| 20260903042106 | 18 | 318 | 6.4 | 9.7 | 0.00 | 0.00 | 0.00 | 39 | 1001.5 |
| 20260903041506 | 18 | 318 | 6.4 | 9.7 | 0.00 | 0.00 | 0.00 | 38 | 1001.5 |
| 20260903041006 | 18 | 307 | 3.2 | 9.7 | 0.00 | 0.00 | 0.00 | 39 | 1001.4 |
| 20260903040505 | 19 | 307 | 6.4 | 12.9 | 0.00 | 0.00 | 0.00 | 36 | 1001.4 |
| 20260903040008 | 20 | 278 | 8.0 | 12.9 | 0.00 | 0.00 | 0.00 | 35 | 1001.3 |
| 20260903035505 | 21 | 328 | 3.2 | 9.7 | 0.00 | 0.00 | 0.00 | 33 | 1001.2 |
| 20260903035004 | 21 | 16 | 3.2 | 9.7 | 0.00 | 0.00 | 0.00 | 33 | 1001.1 |
| 20260903034504 | 21 | 326 | 3.2 | 8.0 | 0.00 | 0.00 | 0.00 | 33 | 1001.1 |
| 20260903034004 | 21 | 3 | 4.8 | 16.1 | 0.00 | 0.00 | 0.00 | 36 | 1001.1 |
| 20260903033503 | 21 | 330 | 6.4 | 16.1 | 0.00 | 0.00 | 0.00 | 31 | 1001.1 |
| 20260903033003 | 20 | 1 | 9.7 | 14.5 | 0.00 | 0.00 | 0.00 | 30 | 1001.1 |
| 20260903032504 | 21 | 100 | 3.2 | 9.7 | 0.00 | 0.00 | 0.00 | 25 | 1001.0 |
| 20260903032003 | 21 | 163 | 4.8 | 12.9 | 0.00 | 0.00 | 0.00 | 23 | 1000.8 |
| 20260903031503 | 21 | 187 | 6.4 | 16.1 | 0.00 | 0.00 | 0.00 | 23 | 1000.8 |
| 20260903031006 | 22 | 197 | 11.3 | 19.3 | 0.00 | 0.00 | 0.00 | 21 | 1000.7 |
| 20260903030503 | 22 | 198 | 11.3 | 20.9 | 0.00 | 0.00 | 0.00 | 22 | 1000.6 |
| 20260903030009 | 22 | 178 | 8.0 | 16.1 | 0.00 | 0.00 | 0.00 | 22 | 1000.5 |
| 20260903025502 | 22 | 175 | 11.3 | 17.7 | 0.00 | 0.00 | 0.00 | 21 | 1000.3 |
| 20260903025002 | 22 | 170 | 9.7 | 20.9 | 0.00 | 0.00 | 0.00 | 20 | 1000.3 |
| 20260903024503 | 22 | 195 | 12.9 | 24.1 | 0.00 | 0.00 | 0.00 | 20 | 1000.3 |
| 20260903024001 | 22 | 172 | 14.5 | 24.1 | 0.00 | 0.00 | 0.00 | 21 | 1000.3 |
| 20260903023501 | 21 | 199 | 14.5 | 19.3 | 0.00 | 0.00 | 0.00 | 21 | 1000.3 |
| 20260903023002 | 21 | 187 | 12.9 | 19.3 | 0.00 | 0.00 | 0.00 | 21 | 1000.2 |
| 20260903022502 | 21 | 181 | 11.3 | 25.7 | 0.00 | 0.00 | 0.00 | 22 | 1000.2 |
| 20260903022002 | 21 | 244 | 17.7 | 25.7 | 0.00 | 0.00 | 0.00 | 21 | 1000.1 |
| 20260903021502 | 20 | 188 | 11.3 | 17.7 | 0.00 | 0.00 | 0.00 | 23 | 1000.1 |
| 20260903021001 | 21 | 174 | 8.0 | 14.5 | 0.00 | 0.00 | 0.00 | 23 | 1000.2 |
| 20260903020502 | 21 | 171 | 9.7 | 14.5 | 0.00 | 0.00 | 0.00 | 23 | 1000.2 |
| 20260903020100 | 21 | 197 | 8.0 | 12.9 | 0.00 | 0.00 | 0.00 | 23 | 1000.2 |
| 20260903015600 | 21 | 174 | 9.7 | 12.9 | 0.00 | 0.00 | 0.00 | 22 | 1000.2 |
| 20260903015100 | 22 | 169 | 8.0 | 11.3 | 0.00 | 0.00 | 0.00 | 23 | 1000.1 |
| 20260903014600 | 22 | 184 | 8.0 | 14.5 | 0.00 | 0.00 | 0.00 | 22 | 1000.1 |
| 20260903014100 | 23 | 191 | 8.0 | 22.5 | 0.00 | 0.00 | 0.00 | 22 | 1000.1 |
| 20260903013559 | 23 | 203 | 11.3 | 30.6 | 0.00 | 0.00 | 0.00 | 20 | 1000.2 |
| 20260903013105 | 24 | 212 | 17.7 | 30.6 | 0.00 | 0.00 | 0.00 | 19 | 1000.2 |
| 20260903012600 | 24 | 211 | 16.1 | 25.7 | 0.00 | 0.00 | 0.00 | 19 | 1000.2 |
| 20260903012100 | 24 | 222 | 11.3 | 17.7 | 0.00 | 0.00 | 0.00 | 21 | 1000.2 |
| 20260903011606 | 24 | 215 | 6.4 | 16.1 | 0.00 | 0.00 | 0.00 | 23 | 1000.3 |
| 20260903011058 | 25 | 201 | 8.0 | 19.3 | 0.00 | 0.00 | 0.00 | 22 | 1000.3 |
| 20260903010557 | 25 | 192 | 12.9 | 32.2 | 0.00 | 0.00 | 0.00 | 20 | 1000.3 |
| 20260903010111 | 25 | 192 | 17.7 | 32.2 | 0.00 | 0.00 | 0.00 | 19 | 1000.3 |
| 20260903005556 | 25 | 184 | 19.3 | 25.7 | 0.00 | 0.00 | 0.00 | 20 | 1000.2 |
| 20260903005055 | 25 | 135 | 19.3 | 30.6 | 0.00 | 0.00 | 0.00 | 20 | 1000.1 |
| 20260903004559 | 25 | 158 | 17.7 | 25.7 | 0.00 | 0.00 | 0.00 | 22 | 1000.1 |
| 20260903004055 | 26 | 168 | 16.1 | 32.2 | 0.00 | 0.00 | 0.00 | 22 | 1000.1 |
| 20260903003554 | 26 | 148 | 19.3 | 32.2 | 0.00 | 0.00 | 0.00 | 21 | 1000.1 |
| 20260903003056 | 26 | 157 | 22.5 | 33.8 | 0.00 | 0.00 | 0.00 | 20 | 1000.2 |
| 20260903002553 | 27 | 139 | 19.3 | 32.2 | 0.00 | 0.00 | 0.00 | 20 | 1000.2 |
| 20260903002054 | 27 | 168 | 22.5 | 37.0 | 0.00 | 0.00 | 0.00 | 19 | 1000.3 |
| 20260903001553 | 27 | 153 | 27.4 | 32.2 | 0.00 | 0.00 | 0.00 | 21 | 1000.2 |
| 20260903001053 | 27 | 144 | 24.1 | 40.2 | 0.00 | 0.00 | 0.00 | 19 | 1000.3 |
| 20260903000552 | 27 | 153 | 32.2 | 40.2 | 0.00 | 0.00 | 0.00 | 20 | 1000.2 |
| 20260903000053 | 27 | 154 | 24.1 | 38.6 | 0.00 | 0.00 | 0.00 | 21 | 1000.2 |
| 20260902235551 | 27 | 142 | 25.7 | 38.6 | 0.00 | 0.00 | 0.00 | 20 | 1000.3 |
| 20260902235053 | 27 | 182 | 27.4 | 38.6 | 0.00 | 0.00 | 0.00 | 20 | 1000.3 |
| 20260902234548 | 27 | 130 | 25.7 | 40.2 | 0.00 | 0.00 | 0.00 | 20 | 1000.4 |
| 20260902234049 | 27 | 163 | 30.6 | 40.2 | 0.00 | 0.00 | 0.00 | 20 | 1000.4 |
| 20260902233547 | 26 | 169 | 24.1 | 46.7 | 0.00 | 0.00 | 0.00 | 21 | 1000.5 |
| 20260902233047 | 26 | 154 | 27.4 | 48.3 | 0.00 | 0.00 | 0.00 | 21 | 1000.5 |
| 20260902232545 | 26 | 174 | 24.1 | 43.5 | 0.00 | 0.00 | 0.00 | 22 | 1000.5 |
| 20260902232046 | 26 | 129 | 25.7 | 38.6 | 0.00 | 0.00 | 0.00 | 21 | 1000.5 |
| 20260902231550 | 26 | 163 | 24.1 | 37.0 | 0.00 | 0.00 | 0.00 | 21 | 1000.5 |
| 20260902231048 | 27 | 197 | 24.1 | 37.0 | 0.00 | 0.00 | 0.00 | 21 | 1000.6 |
| 20260902230547 | 27 | 158 | 24.1 | 41.8 | 0.00 | 0.00 | 0.00 | 21 | 1000.6 |
| 20260902230044 | 27 | 178 | 29.0 | 35.4 | 0.00 | 0.00 | 0.00 | 20 | 1000.6 |
| 20260902225544 | 26 | 176 | 22.5 | 35.4 | 0.00 | 0.00 | 0.00 | 22 | 1000.6 |
| 20260902225044 | 26 | 176 | 20.9 | 41.8 | 0.00 | 0.00 | 0.00 | 22 | 1000.6 |
| 20260902224543 | 26 | 157 | 27.4 | 41.8 | 0.00 | 0.00 | 0.00 | 22 | 1000.6 |
| 20260902224042 | 26 | 136 | 27.4 | 46.7 | 0.00 | 0.00 | 0.00 | 22 | 1000.6 |
| 20260902223542 | 26 | 157 | 32.2 | 46.7 | 0.00 | 0.00 | 0.00 | 21 | 1000.6 |
| 20260902223041 | 27 | 143 | 29.0 | 45.1 | 0.00 | 0.00 | 0.00 | 22 | 1000.7 |
| 20260902222541 | 26 | 184 | 24.1 | 38.6 | 0.00 | 0.00 | 0.00 | 21 | 1000.7 |
| 20260902222043 | 26 | 170 | 24.1 | 37.0 | 0.00 | 0.00 | 0.00 | 22 | 1000.9 |
| 20260902221539 | 26 | 160 | 27.4 | 38.6 | 0.00 | 0.00 | 0.00 | 23 | 1000.8 |
| 20260902221039 | 27 | 149 | 24.1 | 38.6 | 0.00 | 0.00 | 0.00 | 22 | 1001.0 |
| 20260902220539 | 27 | 148 | 27.4 | 40.2 | 0.00 | 0.00 | 0.00 | 22 | 1001.0 |
| 20260902220040 | 27 | 188 | 25.7 | 37.0 | 0.00 | 0.00 | 0.00 | 22 | 1001.0 |
| 20260902215536 | 27 | 150 | 22.5 | 48.3 | 0.00 | 0.00 | 0.00 | 22 | 1001.1 |
| 20260902215038 | 27 | 151 | 29.0 | 51.5 | 0.00 | 0.00 | 0.00 | 22 | 1001.1 |
| 20260902214538 | 27 | 139 | 17.7 | 33.8 | 0.00 | 0.00 | 0.00 | 22 | 1001.2 |
| 20260902214035 | 27 | 181 | 20.9 | 38.6 | 0.00 | 0.00 | 0.00 | 22 | 1001.3 |
| 20260902213635 | 27 | 201 | 24.1 | 38.6 | 0.00 | 0.00 | 0.00 | 22 | 1001.4 |
| 20260902213033 | 26 | 194 | 25.7 | 49.9 | 0.00 | 0.00 | 0.00 | 22 | 1001.4 |
| 20260902212533 | 26 | 197 | 32.2 | 49.9 | 0.00 | 0.00 | 0.00 | 23 | 1001.5 |
| 20260902212033 | 27 | 169 | 19.3 | 32.2 | 0.00 | 0.00 | 0.00 | 23 | 1001.3 |
| 20260902211532 | 27 | 193 | 19.3 | 38.6 | 0.00 | 0.00 | 0.00 | 23 | 1001.5 |
| 20260902211032 | 27 | 186 | 25.7 | 40.2 | 0.00 | 0.00 | 0.00 | 22 | 1001.7 |
| 20260902210534 | 27 | 204 | 22.5 | 35.4 | 0.00 | 0.00 | 0.00 | 23 | 1001.5 |
| 20260902210036 | 27 | 158 | 22.5 | 40.2 | 0.00 | 0.00 | 0.00 | 23 | 1001.5 |
| 20260902205530 | 27 | 206 | 22.5 | 40.2 | 0.00 | 0.00 | 0.00 | 24 | 1001.6 |
| 20260902205030 | 27 | 195 | 19.3 | 38.6 | 0.00 | 0.00 | 0.00 | 22 | 1001.5 |
| 20260902204539 | 27 | 197 | 25.7 | 38.6 | 0.00 | 0.00 | 0.00 | 25 | 1001.6 |
| 20260902204029 | 26 | 161 | 24.1 | 35.4 | 0.00 | 0.00 | 0.00 | 23 | 1001.7 |
| 20260902203527 | 27 | 174 | 22.5 | 38.6 | 0.00 | 0.00 | 0.00 | 24 | 1001.7 |
| 20260902203027 | 27 | 194 | 22.5 | 46.7 | 0.00 | 0.00 | 0.00 | 25 | 1001.7 |
| 20260902202526 | 27 | 168 | 25.7 | 41.8 | 0.00 | 0.00 | 0.00 | 26 | 1001.7 |
| 20260902202026 | 27 | 201 | 29.0 | 37.0 | 0.00 | 0.00 | 0.00 | 24 | 1001.8 |
| 20260902201530 | 27 | 138 | 22.5 | 40.2 | 0.00 | 0.00 | 0.00 | 25 | 1001.7 |
| 20260902201024 | 26 | 178 | 14.5 | 41.8 | 0.00 | 0.00 | 0.00 | 25 | 1001.7 |